QPF
0.00 0.00 0.00 0.01 0.04 0.01 0.00 0.00 0.00 0.00 0.00 0.00 0.00 0.00 0.00 0.00 0.00 0.00 0.00 0.00 0.00 0.00 0.00 0.00 0.00 0.00 0.00 0.00 0.00 0.00 0.00 0.00 0.00 0.00 0.00 0.00 0.01 0.01 0.01 0.02 0.02 0.05 0.06
0.00 0.00 0.00 0.03 0.04 0.05 0.00 0.00 0.00 0.00 0.01 0.01 0.02 0.00 0.00 0.00 0.00 0.00 0.00 0.00 0.00 0.00 0.00 0.00 0.00 0.00 0.00 0.00 0.00 0.00 0.00 0.00 0.00 0.00 0.00 0.00 0.00 0.01 0.01 0.00 0.00 0.00 0.00
0.08 0.04 0.09 0.13 0.07 0.01 0.00 0.00 0.00 0.01 0.01 0.00 0.00 0.00 0.00 0.00 0.00 0.00 0.00 0.00 0.00 0.00 0.00 0.00 0.00 0.00 0.00 0.00 0.00 0.00 0.00 0.00 0.00 0.00 0.00 0.00 0.00 0.00 0.00 0.00 0.00 0.00 0.00
0.00 0.01 0.06 0.17 0.16 0.01 0.00 0.00 0.01 0.02 0.03 0.00 0.00 0.00 0.00 0.00 0.00 0.00 0.00 0.00 0.00 0.00 0.00 0.00 0.00 0.00 0.00 0.00 0.00 0.00 0.00 0.00 0.00 0.00 0.00 0.00 0.00 0.00 0.00 0.00 0.00 0.00 0.00
0.00 0.01 0.10 0.32 0.15 0.05 0.02 0.01 0.09 0.11 0.02 0.00 0.00 0.00 0.00 0.00 0.00 0.00 0.00 0.00 0.00 0.00 0.00 0.00 0.00 0.00 0.00 0.00 0.00 0.00 0.00 0.00 0.00 0.00 0.00 0.00 0.00 0.00 0.00 0.00 0.00 0.00 0.00
0.00 0.01 0.05 0.26 0.22 0.07 0.03 0.04 0.07 0.11 0.02 0.00 0.00 0.00 0.00 0.00 0.00 0.00 0.00 0.00 0.00 0.00 0.00 0.00 0.00 0.00 0.00 0.00 0.00 0.00 0.00 0.00 0.00 0.00 0.00 0.00 0.00 0.00 0.00 0.00 0.00 0.00 0.00
0.00 0.00 0.00 0.00 0.03 0.02 0.03 0.07 0.09 0.04 0.01 0.00 0.00 0.00 0.00 0.00 0.00 0.00 0.00 0.00 0.00 0.00 0.00 0.00 0.00 0.00 0.00 0.00 0.00 0.00 0.00 0.00 0.00 0.00 0.00 0.00 0.00 0.00 0.00 0.00 0.01 0.01 0.01
0.01 0.00 0.00 0.00 0.01 0.06 0.10 0.14 0.08 0.02 0.00 0.00 0.00 0.00 0.00 0.00 0.00 0.00 0.00 0.00 0.00 0.00 0.00 0.00 0.00 0.00 0.00 0.00 0.00 0.00 0.00 0.00 0.00 0.00 0.00 0.00 0.00 0.00 0.00 0.00 0.00 0.01 0.00
0.00 0.00 0.00 0.01 0.03 0.14 0.15 0.05 0.02 0.01 0.00 0.00 0.00 0.00 0.00 0.00 0.00 0.00 0.00 0.00 0.00 0.00 0.00 0.00 0.00 0.00 0.00 0.00 0.00 0.00 0.00 0.00 0.00 0.00 0.00 0.00 0.00 0.00 0.00 0.00 0.00 0.00 0.00
0.00 0.00 0.00 0.01 0.04 0.07 0.04 0.03 0.01 0.00 0.00 0.00 0.00 0.00 0.00 0.00 0.00 0.00 0.00 0.00 0.00 0.00 0.00 0.00 0.00 0.00 0.00 0.00 0.00 0.00 0.00 0.00 0.00 0.00 0.00 0.00 0.00 0.00 0.00 0.00 0.00 0.00 0.00
0.00 0.00 0.01 0.00 0.04 0.07 0.03 0.01 0.00 0.00 0.00 0.00 0.00 0.00 0.00 0.00 0.00 0.00 0.00 0.00 0.00 0.00 0.00 0.00 0.00 0.00 0.00 0.00 0.00 0.00 0.00 0.00 0.00 0.00 0.00 0.00 0.00 0.00 0.00 0.00 0.00 0.00 0.00
0.00 0.00 0.01 0.01 0.04 0.01 0.00 0.00 0.00 0.00 0.00 0.00 0.00 0.00 0.00 0.00 0.00 0.00 0.00 0.00 0.00 0.00 0.00 0.00 0.00 0.00 0.00 0.00 0.00 0.00 0.00 0.00 0.00 0.00 0.00 0.00 0.00 0.00 0.00 0.00 0.00 0.00 0.00
0.00 0.00 0.02 0.00 0.00 0.00 0.00 0.00 0.00 0.00 0.00 0.00 0.00 0.00 0.00 0.00 0.00 0.00 0.00 0.00 0.00 0.00 0.00 0.00 0.00 0.00 0.00 0.00 0.00 0.00 0.00 0.00 0.00 0.00 0.00 0.00 0.00 0.00 0.00 0.00 0.00 0.00 0.00
0.00 0.00 0.00 0.00 0.00 0.00 0.00 0.00 0.00 0.00 0.00 0.00 0.00 0.00 0.00 0.00 0.00 0.00 0.00 0.00 0.00 0.00 0.00 0.00 0.00 0.00 0.00 0.00 0.00 0.00 0.00 0.00 0.00 0.00 0.00 0.00 0.00 0.00 0.00 0.00 0.00 0.00 0.00
0.00 0.00 0.00 0.00 0.00 0.00 0.00 0.00 0.00 0.00 0.00 0.00 0.00 0.00 0.00 0.00 0.00 0.00 0.00 0.00 0.00 0.00 0.00 0.00 0.00 0.00 0.00 0.00 0.00 0.00 0.00 0.00 0.00 0.00 0.00 0.00 0.00 0.00 0.00 0.00 0.00 0.00 0.00
0.00 0.00 0.00 0.00 0.00 0.00 0.00 0.00 0.00 0.00 0.00 0.00 0.00 0.00 0.00 0.00 0.00 0.00 0.00 0.00 0.00 0.00 0.00 0.00 0.00 0.00 0.00 0.00 0.00 0.00 0.00 0.00 0.00 0.00 0.00 0.00 0.00 0.00 0.00 0.00 0.00 0.00 0.00
0.00 0.00 0.00 0.00 0.00 0.00 0.00 0.00 0.00 0.00 0.00 0.00 0.00 0.00 0.00 0.00 0.00 0.00 0.00 0.00 0.00 0.00 0.00 0.00 0.00 0.00 0.00 0.00 0.00 0.00 0.00 0.00 0.00 0.00 0.00 0.00 0.00 0.00 0.00 0.00 0.00 0.00 0.00
0.00 0.00 0.00 0.00 0.00 0.00 0.00 0.00 0.00 0.00 0.00 0.00 0.00 0.00 0.00 0.00 0.00 0.00 0.00 0.00 0.00 0.00 0.00 0.00 0.00 0.00 0.00 0.00 0.00 0.00 0.00 0.00 0.00 0.00 0.00 0.00 0.00 0.00 0.00 0.00 0.00 0.00 0.00
0.01 0.00 0.00 0.00 0.00 0.00 0.00 0.00 0.00 0.00 0.00 0.00 0.00 0.00 0.00 0.00 0.00 0.00 0.00 0.00 0.00 0.00 0.00 0.00 0.00 0.00 0.00 0.00 0.00 0.00 0.00 0.00 0.00 0.00 0.00 0.00 0.00 0.00 0.00 0.00 0.00 0.00 0.00
0.00 0.00 0.00 0.00 0.00 0.00 0.00 0.00 0.00 0.00 0.00 0.00 0.00 0.00 0.00 0.00 0.00 0.00 0.00 0.00 0.00 0.00 0.00 0.00 0.00 0.00 0.00 0.00 0.00 0.00 0.00 0.00 0.00 0.00 0.00 0.00 0.00 0.00 0.00 0.00 0.00 0.00 0.00
0.00 0.00 0.00 0.00 0.00 0.00 0.00 0.00 0.00 0.00 0.00 0.00 0.00 0.00 0.00 0.00 0.00 0.00 0.00 0.00 0.00 0.00 0.00 0.00 0.00 0.00 0.00 0.00 0.00 0.00 0.00 0.00 0.00 0.00 0.00 0.00 0.00 0.00 0.00 0.00 0.00 0.00 0.00
0.00 0.00 0.00 0.00 0.00 0.00 0.00 0.00 0.00 0.00 0.00 0.00 0.00 0.00 0.00 0.00 0.00 0.00 0.00 0.00 0.00 0.00 0.00 0.00 0.00 0.00 0.00 0.00 0.00 0.00 0.00 0.00 0.00 0.00 0.00 0.00 0.00 0.00 0.00 0.00 0.00 0.00 0.00
0.00 0.00 0.00 0.00 0.00 0.00 0.00 0.00 0.00 0.00 0.00 0.00 0.00 0.00 0.00 0.00 0.00 0.00 0.00 0.00 0.00 0.00 0.00 0.00 0.00 0.00 0.00 0.00 0.00 0.00 0.00 0.00 0.00 0.00 0.00 0.00 0.00 0.00 0.00 0.00 0.00 0.00 0.00
0.00 0.00 0.00 0.00 0.00 0.00 0.00 0.00 0.00 0.00 0.00 0.00 0.00 0.00 0.00 0.00 0.00 0.00 0.00 0.00 0.00 0.00 0.00 0.00 0.00 0.00 0.00 0.00 0.00 0.00 0.00 0.00 0.00 0.00 0.00 0.00 0.00 0.00 0.00 0.00 0.00 0.00 0.00
0.00 0.00 0.00 0.00 0.00 0.00 0.00 0.00 0.00 0.00 0.00 0.00 0.00 0.00 0.00 0.00 0.00 0.00 0.00 0.00 0.00 0.00 0.00 0.00 0.00 0.00 0.00 0.00 0.00 0.00 0.00 0.00 0.00 0.00 0.00 0.00 0.00 0.00 0.00 0.00 0.00 0.00 0.00
0.00 0.00 0.00 0.00 0.00 0.00 0.00 0.00 0.00 0.00 0.00 0.00 0.00 0.00 0.00 0.00 0.00 0.00 0.00 0.00 0.00 0.00 0.00 0.00 0.00 0.00 0.00 0.00 0.00 0.00 0.00 0.00 0.00 0.00 0.00 0.00 0.00 0.00 0.00 0.00 0.00 0.00 0.00
MSLP
1010.20 1010.94 1011.56 1011.91 1012.65 1012.98 1013.41 1013.95 1014.45 1014.91 1015.21 1015.51 1015.61 1015.61 1015.73 1015.78 1016.00 1016.11 1016.18 1016.24 1016.17 1016.16 1015.91 1015.65 1015.64 1015.50 1014.98 1014.38 1013.95 1013.51 1013.00 1012.83 1012.50 1012.07 1011.75 1011.41 1011.30 1010.44 1009.96 1009.70 1009.30 1009.28 1009.18
1010.34 1011.07 1011.49 1011.96 1012.58 1013.13 1013.34 1013.70 1014.28 1014.82 1015.30 1015.51 1015.88 1016.01 1016.10 1016.18 1016.34 1016.36 1016.42 1016.55 1016.68 1016.56 1016.39 1016.06 1016.16 1016.07 1015.89 1015.22 1014.59 1014.27 1013.87 1013.75 1013.28 1012.36 1011.65 1011.13 1010.84 1010.54 1010.20 1010.09 1009.16 1008.58 1008.44
1010.49 1011.08 1011.84 1012.49 1012.42 1012.95 1013.52 1013.83 1014.20 1015.03 1015.43 1015.83 1016.04 1016.26 1016.53 1016.72 1016.79 1016.97 1017.11 1017.09 1016.96 1017.13 1017.15 1016.74 1016.84 1016.56 1016.24 1016.00 1015.52 1014.92 1014.32 1014.12 1013.41 1012.76 1011.99 1011.19 1010.91 1010.39 1010.26 1009.86 1009.32 1008.79 1008.04
1010.22 1010.68 1011.80 1012.33 1012.90 1012.78 1013.60 1014.15 1014.58 1015.33 1016.00 1016.28 1016.57 1016.83 1017.06 1017.22 1017.38 1017.38 1017.50 1017.58 1017.35 1017.32 1017.18 1016.99 1017.00 1017.11 1017.20 1016.95 1015.98 1015.48 1015.01 1014.68 1013.88 1013.02 1012.27 1011.61 1011.28 1011.03 1010.86 1010.10 1009.58 1009.19 1008.36
1010.65 1011.37 1011.61 1011.91 1013.20 1012.76 1014.32 1014.79 1015.70 1016.08 1016.49 1016.90 1017.17 1017.36 1017.47 1017.47 1017.57 1017.56 1017.70 1017.63 1017.52 1017.63 1017.82 1017.49 1017.62 1017.76 1017.73 1017.75 1017.13 1016.65 1016.07 1015.20 1014.52 1014.38 1013.51 1013.03 1012.58 1012.53 1012.14 1011.77 1010.78 1009.84 1008.98
1009.87 1011.20 1011.58 1012.23 1013.39 1012.56 1014.99 1015.55 1016.18 1016.76 1017.08 1017.11 1017.36 1017.48 1017.57 1017.79 1018.71 1018.32 1017.82 1018.03 1018.06 1017.88 1017.79 1017.89 1017.81 1018.11 1017.75 1017.73 1017.66 1017.44 1017.11 1016.48 1015.72 1015.09 1014.20 1014.02 1013.37 1013.34 1012.96 1012.76 1012.36 1011.31 1009.86
1010.28 1010.47 1011.32 1012.27 1013.08 1013.88 1015.14 1015.78 1016.60 1016.86 1017.40 1017.35 1017.78 1018.01 1018.29 1018.87 1019.12 1019.10 1018.88 1018.61 1018.52 1018.51 1018.44 1018.23 1017.71 1017.88 1018.03 1017.55 1017.19 1016.86 1016.52 1016.48 1016.49 1016.05 1015.22 1014.66 1014.31 1013.92 1013.60 1012.84 1012.53 1012.20 1011.44
1008.64 1009.89 1011.07 1012.14 1012.99 1014.21 1015.34 1016.16 1016.68 1016.96 1017.43 1017.78 1018.15 1018.68 1019.04 1019.40 1019.40 1019.29 1019.05 1018.80 1018.84 1018.63 1018.63 1018.44 1018.22 1018.21 1018.44 1017.95 1017.13 1016.60 1016.17 1015.73 1015.86 1015.74 1015.69 1015.30 1014.96 1014.66 1014.04 1013.24 1012.42 1011.62 1010.65
1009.81 1009.89 1011.03 1011.98 1013.20 1014.34 1015.26 1015.82 1016.37 1017.07 1017.67 1017.74 1018.07 1018.48 1018.96 1019.49 1019.58 1019.47 1019.06 1018.76 1018.94 1018.86 1018.98 1018.94 1018.52 1018.35 1018.82 1018.45 1017.28 1016.61 1016.06 1015.54 1015.24 1015.36 1015.19 1014.89 1014.64 1014.38 1014.07 1012.93 1011.74 1011.22 1010.19
1009.56 1010.21 1010.82 1012.24 1013.24 1014.01 1014.78 1015.71 1016.34 1016.86 1017.20 1017.36 1017.93 1018.31 1018.97 1019.52 1019.61 1019.76 1019.15 1018.32 1018.33 1018.00 1018.46 1018.81 1019.12 1019.15 1019.15 1018.94 1018.13 1016.86 1016.05 1015.79 1015.19 1014.47 1013.84 1013.65 1013.36 1013.00 1013.13 1012.83 1012.20 1011.43 1010.94
1009.26 1009.98 1011.29 1012.25 1013.31 1013.93 1014.74 1015.64 1016.10 1016.47 1016.89 1017.46 1017.63 1018.19 1018.60 1019.16 1019.75 1020.15 1019.73 1018.81 1018.29 1018.12 1017.85 1017.72 1017.88 1018.70 1018.89 1018.83 1018.52 1017.21 1016.50 1016.40 1014.98 1013.79 1013.23 1012.84 1012.68 1012.33 1012.12 1012.20 1012.19 1012.07 1011.31
1009.61 1010.43 1011.41 1012.33 1013.14 1013.92 1014.70 1015.54 1015.92 1016.34 1016.96 1017.53 1017.92 1017.95 1018.29 1019.01 1019.40 1019.67 1019.63 1019.64 1019.43 1018.86 1018.30 1017.75 1017.83 1018.29 1018.40 1018.05 1017.75 1016.95 1016.64 1016.02 1014.05 1013.33 1012.76 1012.36 1012.15 1012.08 1012.04 1011.99 1011.64 1011.42 1011.16
1009.59 1010.77 1011.59 1012.32 1013.04 1013.89 1014.75 1015.37 1015.89 1016.29 1016.53 1016.80 1017.30 1017.27 1017.62 1018.43 1018.90 1019.37 1019.61 1019.59 1019.62 1019.27 1018.39 1018.11 1018.14 1017.83 1017.61 1017.13 1016.33 1016.24 1016.25 1014.99 1013.54 1012.95 1012.62 1012.32 1012.10 1011.86 1011.82 1011.23 1010.88 1010.75 1010.05
1010.46 1011.16 1011.89 1012.58 1013.31 1014.09 1014.66 1015.24 1015.25 1015.64 1015.88 1016.27 1016.58 1016.77 1017.09 1017.58 1017.90 1018.10 1018.60 1018.78 1018.79 1018.87 1017.95 1017.38 1017.30 1016.67 1016.20 1015.57 1015.35 1014.37 1014.35 1013.57 1013.54 1013.31 1012.53 1012.10 1011.84 1011.33 1010.81 1010.45 1010.19 1009.84 1009.35
1010.18 1011.18 1011.79 1012.59 1013.26 1013.95 1014.21 1014.91 1015.26 1015.72 1015.98 1016.49 1016.81 1016.57 1016.97 1017.29 1017.44 1018.33 1018.75 1018.48 1018.10 1018.04 1018.26 1017.16 1015.99 1015.18 1014.60 1014.22 1013.72 1013.29 1012.93 1012.68 1012.58 1012.23 1011.85 1011.56 1011.17 1010.77 1010.27 1009.91 1009.62 1009.24 1008.68
1010.14 1010.93 1011.76 1012.39 1013.10 1013.50 1014.38 1015.29 1016.08 1016.40 1016.85 1017.30 1017.45 1017.72 1017.18 1017.86 1018.30 1018.40 1018.66 1018.62 1018.43 1018.45 1017.90 1016.51 1015.37 1014.60 1014.07 1013.77 1013.27 1012.68 1012.33 1012.20 1012.03 1012.02 1011.84 1011.31 1010.74 1010.27 1009.88 1009.55 1009.13 1008.77 1008.01
1010.14 1010.87 1011.82 1012.57 1012.95 1013.65 1014.29 1014.85 1015.61 1016.92 1017.03 1017.14 1017.80 1018.06 1018.18 1018.28 1018.23 1018.25 1018.26 1018.07 1017.62 1017.94 1016.93 1015.29 1014.53 1013.90 1013.64 1013.42 1013.05 1012.63 1012.18 1012.15 1012.33 1011.63 1011.24 1010.74 1010.24 1009.88 1009.62 1009.07 1008.81 1008.55 1007.74
1010.67 1011.48 1011.91 1012.40 1013.04 1013.56 1013.99 1014.66 1015.33 1016.10 1016.13 1016.57 1017.23 1017.52 1017.66 1017.76 1017.71 1017.75 1017.72 1017.68 1016.26 1016.63 1015.59 1014.12 1013.71 1013.52 1013.49 1013.17 1012.84 1012.58 1012.36 1012.22 1011.86 1011.52 1011.11 1010.61 1010.10 1009.64 1009.29 1009.01 1008.94 1008.49 1007.67
1011.22 1011.58 1011.86 1012.65 1013.50 1013.72 1014.22 1014.88 1015.09 1015.02 1015.85 1015.88 1015.54 1016.54 1016.49 1016.83 1016.91 1016.86 1016.99 1016.28 1015.12 1014.67 1014.10 1013.74 1013.51 1013.43 1013.36 1013.23 1013.05 1012.94 1012.77 1012.27 1011.99 1011.48 1010.69 1010.14 1009.80 1009.59 1009.33 1009.16 1008.80 1008.28 1007.60
1011.18 1011.84 1012.19 1012.99 1013.70 1013.91 1013.98 1014.22 1014.54 1014.84 1014.76 1014.67 1014.63 1014.51 1014.70 1015.60 1015.20 1014.99 1014.71 1014.40 1014.23 1013.92 1013.57 1013.66 1013.62 1013.68 1013.59 1013.53 1013.25 1013.09 1012.67 1012.09 1011.52 1011.06 1010.52 1010.19 1009.92 1009.74 1009.56 1009.02 1008.19 1007.37 1006.82
1011.47 1012.50 1012.57 1012.64 1012.91 1013.21 1013.43 1013.69 1013.85 1013.89 1013.70 1013.54 1013.66 1013.87 1014.88 1014.99 1014.52 1013.99 1013.82 1013.50 1013.62 1013.66 1013.84 1013.97 1013.93 1013.91 1013.70 1013.55 1013.50 1013.19 1012.69 1012.14 1011.74 1011.46 1011.09 1010.80 1010.63 1010.12 1009.50 1008.65 1007.75 1007.15 1006.50
1010.88 1011.74 1012.10 1012.24 1012.54 1012.77 1012.96 1013.15 1013.29 1013.32 1013.06 1012.90 1012.79 1013.58 1014.26 1014.08 1013.34 1013.25 1013.37 1013.19 1013.44 1013.86 1013.94 1014.14 1014.13 1014.03 1013.89 1013.86 1013.73 1013.38 1012.98 1012.58 1012.32 1012.11 1011.73 1011.28 1010.64 1009.65 1008.88 1008.20 1007.59 1006.93 1006.32
1010.67 1011.33 1011.70 1011.92 1012.32 1012.64 1012.91 1012.80 1012.75 1012.67 1012.50 1012.41 1012.39 1012.69 1012.96 1012.87 1012.85 1012.85 1012.92 1013.23 1013.59 1013.81 1013.93 1014.13 1014.19 1014.07 1014.07 1014.15 1013.86 1013.57 1013.25 1012.97 1012.99 1012.89 1012.24 1011.44 1010.63 1009.64 1008.92 1008.16 1007.32 1006.77 1005.99
1010.71 1010.94 1011.29 1011.75 1012.14 1012.24 1012.28 1012.33 1012.36 1012.77 1012.72 1012.30 1012.19 1012.38 1012.52 1012.61 1012.38 1012.55 1013.13 1013.26 1013.65 1013.80 1013.95 1014.07 1014.17 1014.27 1014.24 1014.02 1013.75 1013.39 1013.20 1013.87 1013.90 1013.10 1012.42 1011.73 1010.71 1009.54 1008.66 1007.91 1007.15 1006.84 1005.95
1010.47 1010.79 1011.02 1011.48 1011.76 1011.92 1012.08 1012.01 1011.87 1012.02 1012.08 1012.15 1012.13 1012.08 1012.07 1012.01 1012.19 1012.57 1012.97 1013.42 1013.74 1013.80 1013.81 1014.00 1013.93 1013.97 1013.88 1013.95 1013.61 1013.48 1014.05 1014.29 1014.02 1013.74 1012.61 1011.46 1010.42 1009.58 1008.71 1007.62 1006.88 1006.55 1005.66
1010.60 1010.88 1010.98 1011.23 1011.49 1011.69 1011.76 1011.69 1011.72 1011.79 1011.70 1011.64 1011.68 1011.83 1011.95 1012.01 1012.16 1012.69 1013.07 1013.48 1013.66 1013.65 1013.77 1013.62 1013.62 1013.74 1013.64 1013.25 1013.40 1014.00 1013.83 1013.70 1013.35 1013.22 1012.62 1011.27 1010.02 1009.03 1008.31 1007.59 1006.79 1006.16 1005.14
Thickness
5797 5791 5786 5781 5774 5771 5765 5761 5754 5749 5746 5741 5739 5739 5738 5736 5734 5732 5731 5730 5728 5726 5727 5727 5725 5725 5726 5730 5733 5734 5735 5734 5727 5733 5738 5740 5739 5746 5750 5750 5753 5752 5752
5793 5787 5783 5780 5773 5767 5762 5759 5754 5747 5743 5739 5734 5732 5730 5728 5726 5725 5722 5721 5718 5717 5717 5719 5717 5717 5715 5719 5721 5721 5723 5722 5721 5722 5731 5735 5737 5740 5742 5741 5749 5751 5751
5787 5781 5775 5767 5769 5764 5759 5755 5752 5743 5738 5732 5729 5726 5723 5720 5718 5715 5711 5710 5710 5707 5704 5706 5704 5705 5705 5706 5707 5709 5713 5714 5718 5719 5721 5729 5730 5735 5734 5737 5740 5743 5748
5785 5779 5766 5758 5754 5757 5753 5749 5744 5737 5729 5724 5721 5719 5716 5713 5710 5708 5703 5699 5700 5700 5700 5700 5698 5695 5691 5692 5698 5700 5702 5702 5707 5712 5716 5719 5721 5722 5722 5724 5726 5731 5736
5771 5763 5758 5743 5733 5744 5737 5737 5726 5724 5720 5717 5714 5711 5707 5706 5704 5701 5697 5694 5692 5689 5686 5688 5686 5683 5681 5679 5682 5684 5686 5692 5696 5692 5697 5699 5701 5699 5701 5704 5710 5716 5723
5784 5760 5751 5740 5723 5735 5724 5724 5716 5712 5711 5711 5707 5705 5702 5698 5686 5689 5691 5686 5684 5684 5682 5679 5678 5674 5676 5673 5671 5670 5669 5671 5676 5679 5684 5681 5686 5685 5687 5686 5686 5692 5701
5771 5768 5755 5743 5730 5729 5722 5714 5707 5707 5704 5703 5699 5694 5689 5683 5679 5676 5675 5677 5676 5674 5673 5672 5675 5671 5667 5669 5669 5669 5668 5665 5662 5663 5667 5671 5670 5671 5671 5675 5676 5675 5678
5785 5773 5760 5747 5738 5725 5714 5707 5704 5704 5699 5695 5689 5683 5678 5674 5672 5672 5671 5670 5667 5667 5664 5664 5664 5661 5655 5657 5661 5662 5662 5663 5659 5656 5653 5655 5656 5655 5657 5661 5666 5669 5677
5768 5767 5758 5748 5734 5723 5713 5709 5704 5698 5692 5690 5686 5679 5673 5666 5663 5661 5663 5664 5658 5656 5652 5649 5650 5648 5639 5640 5648 5649 5650 5651 5649 5646 5645 5645 5645 5644 5644 5651 5657 5659 5665
5771 5765 5757 5742 5731 5724 5716 5705 5701 5695 5690 5688 5681 5676 5666 5659 5655 5650 5654 5660 5654 5653 5645 5639 5632 5629 5626 5625 5629 5636 5638 5636 5637 5639 5642 5641 5638 5637 5634 5634 5638 5640 5642
5771 5764 5750 5740 5728 5722 5713 5704 5699 5694 5689 5681 5679 5670 5665 5658 5649 5640 5640 5647 5647 5643 5641 5639 5635 5622 5616 5613 5612 5621 5622 5616 5625 5631 5631 5631 5629 5628 5627 5622 5619 5617 5621
5765 5754 5743 5733 5725 5718 5709 5700 5696 5690 5679 5671 5665 5664 5659 5649 5642 5635 5632 5628 5626 5626 5625 5627 5624 5613 5607 5606 5605 5608 5604 5606 5620 5619 5619 5618 5615 5611 5609 5605 5604 5603 5603
5756 5743 5735 5728 5720 5711 5700 5693 5687 5681 5677 5671 5662 5658 5651 5643 5637 5628 5622 5618 5612 5612 5616 5613 5606 5605 5602 5601 5602 5597 5592 5602 5609 5607 5604 5603 5602 5601 5597 5598 5595 5591 5592
5736 5731 5726 5717 5709 5702 5696 5687 5685 5680 5675 5667 5659 5652 5647 5641 5636 5632 5623 5617 5608 5603 5606 5607 5602 5601 5599 5600 5596 5601 5598 5600 5594 5589 5592 5593 5592 5591 5590 5589 5585 5584 5582
5733 5725 5719 5711 5703 5694 5690 5680 5675 5671 5665 5657 5649 5648 5639 5631 5628 5616 5608 5607 5605 5598 5588 5594 5599 5599 5599 5597 5597 5596 5595 5593 5588 5586 5585 5584 5583 5581 5579 5578 5574 5571 5569
5727 5720 5712 5705 5696 5691 5680 5670 5658 5653 5646 5639 5634 5627 5630 5618 5608 5604 5596 5590 5586 5578 5580 5588 5590 5591 5590 5588 5589 5589 5588 5584 5581 5577 5573 5573 5573 5571 5568 5565 5563 5560 5561
5720 5713 5703 5695 5690 5681 5672 5663 5655 5641 5637 5632 5622 5614 5608 5602 5598 5593 5586 5582 5579 5572 5580 5587 5586 5587 5585 5582 5581 5579 5578 5574 5569 5570 5567 5566 5566 5563 5558 5557 5552 5549 5553
5706 5695 5693 5688 5680 5672 5666 5656 5650 5640 5638 5629 5615 5607 5600 5594 5591 5585 5579 5573 5584 5574 5579 5586 5583 5581 5577 5575 5573 5571 5567 5564 5562 5558 5555 5554 5554 5553 5550 5545 5539 5538 5543
5692 5688 5686 5677 5667 5663 5656 5648 5642 5638 5624 5620 5619 5603 5601 5594 5588 5582 5574 5578 5583 5581 5581 5578 5576 5573 5570 5567 5563 5559 5555 5553 5549 5547 5548 5548 5546 5543 5540 5534 5531 5530 5534
5686 5678 5674 5664 5657 5654 5650 5643 5635 5627 5623 5618 5615 5615 5609 5596 5595 5592 5586 5584 5580 5578 5576 5571 5568 5564 5561 5556 5554 5549 5546 5544 5542 5540 5539 5538 5536 5533 5530 5529 5531 5534 5535
5677 5667 5666 5663 5657 5650 5644 5638 5632 5626 5622 5622 5617 5612 5594 5591 5588 5588 5584 5582 5577 5572 5567 5562 5558 5554 5552 5548 5543 5539 5536 5534 5531 5528 5526 5524 5522 5522 5522 5525 5529 5529 5531
5674 5666 5660 5656 5651 5647 5641 5635 5628 5625 5623 5620 5617 5606 5590 5590 5592 5589 5583 5580 5574 5566 5562 5555 5550 5546 5542 5536 5532 5528 5525 5522 5519 5515 5514 5514 5516 5520 5522 5523 5523 5524 5525
5669 5661 5656 5652 5646 5637 5634 5632 5629 5625 5623 5618 5614 5606 5599 5596 5591 5586 5582 5576 5568 5562 5555 5548 5541 5537 5531 5525 5521 5518 5514 5512 5507 5503 5505 5507 5510 5514 5515 5517 5519 5519 5521
5662 5657 5652 5646 5641 5637 5634 5630 5626 5614 5613 5613 5610 5604 5598 5592 5590 5585 5577 5571 5563 5555 5548 5541 5534 5527 5522 5517 5514 5511 5508 5499 5494 5496 5498 5500 5504 5509 5511 5512 5515 5512 5515
5657 5652 5649 5643 5639 5634 5630 5627 5624 5619 5614 5608 5604 5600 5597 5595 5590 5583 5575 5565 5556 5549 5543 5534 5528 5522 5517 5511 5509 5505 5499 5495 5491 5490 5493 5497 5502 5504 5506 5511 5514 5510 5512
5650 5647 5645 5641 5635 5630 5626 5622 5618 5613 5610 5607 5603 5598 5595 5591 5586 5577 5567 5558 5550 5545 5537 5531 5525 5518 5513 5511 5506 5499 5498 5495 5492 5491 5490 5495 5501 5505 5507 5508 5510 5509 5512